Location: Altenst�hlen
(53.5567°N, 8.9425°E)
Time: 08:27:40
(UTC+00:00)

Cosmos 2297 Rocket - Pass Details

Date: 23 October 2019
Orbit: 841 x 842 km, 71.0° (Epoch: 14 November)

Event Time Altitude Azimuth Distance (km) Brightness Sun altitude
Rises 19:11:29 0° 324° (NW) 3,409 6.1 -27.3°
Reaches altitude 10° 19:14:30 10° 340° (NNW) 2,472 5.1 -27.7°
Enters shadow 19:18:19 22° 22° (NNE) 1,766 3.8 -28.2°
